Location: ČR
(50.0000°N, 15.0000°E)
Time: 09:27:12
(UTC+01:00)

Envisat - Pass Details

Date: 11 August 2025
Orbit: 761 x 763 km, 98.4° (Epoch: 13 March)

Event Time Altitude Azimuth Distance (km) Brightness Sun altitude
Rises 03:45:58 0° 16° (NNE) 3,239 7.5 -15.8°
Reaches altitude 10° 03:48:18 10° 19° (NNE) 2,308 6.6 -15.6°
Maximum altitude 03:53:22 70° 103° (ESE) 816 3.2 -15.0°
Enters shadow 03:57:36 15° 185° (S) 1,974 4.7 -14.6°
